CW0238 Weather Reports


Display with metric or nautical units.
time (UTC)temp
F
wind
direction
speed
MPH
gust
MPH
rain 1hr
in
rain 24hr
in
rain mn
in
humidity
%
barometer
mb
20260906203003 87 317 1.0 3.0 0.00 0.00 0.00 55 1013.5
20260906202718 87 317 1.0 3.0 0.00 0.00 0.00 55 1013.5
20260906201959 86 80 2.0 3.0 0.00 0.00 0.00 56 1013.5
20260906201500 87 78 1.0 5.0 0.00 0.00 0.00 56 1013.5
20260906200958 86 294 1.0 5.0 0.00 0.00 0.00 55 1013.4
20260906200502 85 77 1.0 3.0 0.00 0.00 0.00 59 1013.6
20260906195955 85 78 1.0 3.0 0.00 0.00 0.00 57 1013.6
20260906195457 86 77 1.0 3.0 0.00 0.00 0.00 59 1013.5
20260906194956 85 78 1.0 3.0 0.00 0.00 0.00 61 1013.7
20260906194724 85 78 1.0 3.0 0.00 0.00 0.00 60 1013.6
20260906193955 86 77 1.0 3.0 0.00 0.00 0.00 58 1013.7
20260906193459 86 74 1.0 2.0 0.00 0.00 0.00 59 1013.7
20260906192954 85 74 1.0 2.0 0.00 0.00 0.00 60 1013.8
20260906192455 85 75 0.0 2.0 0.00 0.00 0.00 59 1013.8
20260906191956 86 99 0.0 2.0 0.00 0.00 0.00 60 1013.8
20260906191724 85 99 0.0 2.0 0.00 0.00 0.00 64 1013.9
20260906190956 85 99 0.0 2.0 0.00 0.00 0.00 63 1013.9
20260906190452 84 99 1.0 3.0 0.00 0.00 0.00 65 1013.9
20260906185954 84 99 1.0 3.0 0.00 0.00 0.00 63 1014.1
20260906185452 85 98 1.0 2.0 0.00 0.00 0.00 63 1014.1
20260906184954 85 98 0.0 3.0 0.00 0.00 0.00 64 1014.0
20260906184453 84 99 0.0 3.0 0.00 0.00 0.00 65 1014.1
20260906183953 83 90 0.0 2.0 0.00 0.00 0.00 67 1014.0
20260906183447 83 90 1.0 3.0 0.00 0.00 0.00 68 1014.2
20260906183208 82 90 1.0 3.0 0.00 0.00 0.00 67 1014.2
20260906182446 83 90 1.0 3.0 0.00 0.00 0.00 67 1014.2
20260906181948 83 53 1.0 4.0 0.00 0.00 0.00 70 1014.1
20260906180942 81 38 0.0 2.0 0.00 0.00 0.00 72 1014.3
20260906180438 81 38 0.0 2.0 0.00 0.00 0.00 71 1014.3
20260906175940 81 38 0.0 2.0 0.00 0.00 0.00 72 1014.3
20260906175440 81 44 0.0 2.0 0.00 0.00 0.00 72 1014.4
20260906174941 81 44 1.0 2.0 0.00 0.00 0.00 72 1014.4
20260906174438 81 44 1.0 2.0 0.00 0.00 0.00 72 1014.6
20260906173940 80 44 0.0 2.0 0.00 0.00 0.00 73 1014.6
20260906173436 80 44 1.0 3.0 0.00 0.00 0.00 73 1014.6
20260906172937 80 44 1.0 3.0 0.00 0.00 0.00 74 1014.7
20260906172434 80 44 1.0 3.0 0.00 0.00 0.00 75 1014.7
20260906171935 80 42 1.0 2.0 0.00 0.00 0.00 75 1014.7
20260906171435 79 42 1.0 2.0 0.00 0.00 0.00 76 1014.7
20260906170935 79 38 0.0 2.0 0.00 0.00 0.00 77 1014.9
20260906170429 79 348 0.0 2.0 0.00 0.00 0.00 78 1015.0
20260906165928 79 348 0.0 2.0 0.00 0.00 0.00 78 1015.0
20260906165430 79 348 0.0 3.0 0.00 0.00 0.00 78 1014.9
20260906165153 79 347 1.0 3.0 0.00 0.00 0.00 79 1015.0
20260906164430 79 321 0.0 2.0 0.00 0.00 0.00 79 1015.2
20260906163928 78 321 0.0 2.0 0.00 0.00 0.00 79 1015.2
20260906163429 78 321 1.0 2.0 0.00 0.00 0.00 79 1015.3
20260906162929 78 320 1.0 3.0 0.00 0.00 0.00 80 1015.2
20260906162430 78 320 0.0 3.0 0.00 0.00 0.00 80 1015.1
20260906161429 78 33 0.0 2.0 0.00 0.00 0.00 80 1015.1
20260906160929 78 33 0.0 1.0 0.00 0.00 0.00 80 1015.2
20260906160700 78 33 0.0 1.0 0.00 0.00 0.00 80 1015.2
20260906155941 77 29 0.0 2.0 0.00 0.00 0.00 80 1015.4
20260906155430 77 27 0.0 2.0 0.00 0.00 0.00 80 1015.4
20260906154922 77 25 0.0 2.0 0.00 0.00 0.00 80 1015.5
20260906154422 77 25 0.0 2.0 0.00 0.00 0.00 81 1015.3
20260906153924 77 25 0.0 2.0 0.00 0.00 0.00 81 1015.3
20260906153421 77 25 0.0 2.0 0.00 0.00 0.00 81 1015.2
20260906152919 77 25 0.0 2.0 0.00 0.00 0.00 81 1015.2
20260906152419 77 25 0.0 2.0 0.00 0.00 0.00 81 1015.1
20260906151644 77 53 0.0 2.0 0.00 0.00 0.00 81 1015.1
20260906150915 77 53 0.0 2.0 0.00 0.00 0.00 82 1015.1
20260906150415 77 43 0.0 2.0 0.00 0.00 0.00 82 1015.0
20260906145916 77 43 0.0 2.0 0.00 0.00 0.00 82 1015.0
20260906145640 76 44 0.0 2.0 0.00 0.00 0.00 82 1015.0
20260906144912 76 44 0.0 2.0 0.00 0.00 0.00 82 1015.0
20260906144410 76 44 0.0 2.0 0.00 0.00 0.00 82 1014.9
20260906143914 76 44 0.0 1.0 0.00 0.00 0.00 82 1015.0
20260906143408 76 44 0.0 1.0 0.00 0.00 0.00 82 1015.0
20260906142904 76 44 0.0 2.0 0.00 0.00 0.00 83 1015.0
20260906142356 76 44 0.0 2.0 0.00 0.00 0.00 83 1014.9
20260906141857 76 337 0.0 2.0 0.00 0.00 0.00 83 1015.0
20260906141354 76 337 0.0 1.0 0.00 0.00 0.00 83 1015.0
20260906140855 76 337 0.0 2.0 0.00 0.00 0.00 83 1014.9
20260906140353 76 337 0.0 2.0 0.00 0.00 0.00 83 1014.8
20260906135854 76 337 0.0 2.0 0.00 0.00 0.00 83 1014.7
20260906135354 76 337 0.0 2.0 0.00 0.00 0.00 83 1014.8
20260906135118 76 337 0.0 2.0 0.00 0.00 0.00 83 1014.7
20260906134350 76 337 0.0 2.0 0.00 0.00 0.00 83 1014.6
20260906133849 76 337 0.0 2.0 0.00 0.00 0.00 83 1014.6
20260906133347 76 337 0.0 2.0 0.00 0.00 0.00 83 1014.5
20260906132846 76 337 0.0 2.0 0.00 0.00 0.00 83 1014.5
20260906131846 76 337 0.0 2.0 0.00 0.00 0.00 84 1014.6
20260906131348 76 337 0.0 2.0 0.00 0.00 0.00 84 1014.6
20260906130844 76 337 0.0 2.0 0.00 0.00 0.00 84 1014.5
20260906130344 76 337 0.0 2.0 0.00 0.00 0.00 84 1014.4
20260906125841 76 337 0.0 2.0 0.00 0.00 0.00 84 1014.3
20260906125354 76 337 0.0 0.0 0.00 0.00 0.00 84 1014.4
20260906124840 76 337 0.0 1.0 0.00 0.00 0.00 84 1014.3
20260906124341 76 337 0.0 2.0 0.00 0.00 0.00 84 1014.2
20260906123838 76 337 0.0 2.0 0.00 0.00 0.00 84 1014.2
20260906123339 76 337 1.0 2.0 0.00 0.00 0.00 85 1014.2
20260906122832 76 336 0.0 2.0 0.00 0.00 0.00 85 1014.1
20260906122333 76 336 0.0 2.0 0.00 0.00 0.00 85 1014.1
20260906121834 76 336 0.0 0.0 0.00 0.00 0.00 85 1014.2
20260906121336 76 336 0.0 0.0 0.00 0.00 0.00 85 1014.0
20260906120832 75 336 0.0 0.0 0.00 0.00 0.00 85 1013.9
20260906120331 75 336 0.0 1.0 0.00 0.00 0.00 85 1013.7
20260906120050 75 336 0.0 2.0 0.00 0.00 0.00 85 1013.6
20260906115324 75 336 0.0 2.0 0.00 0.00 0.00 85 1013.6
20260906114826 75 336 0.0 2.0 0.00 0.00 0.00 85 1013.5
20260906114319 75 336 1.0 2.0 0.00 0.00 0.00 85 1013.5
20260906113820 75 336 0.0 2.0 0.00 0.00 0.00 84 1013.5
20260906113326 75 336 0.0 2.0 0.00 0.00 0.00 84 1013.4
20260906112815 75 335 0.0 1.0 0.00 0.00 0.00 84 1013.4
20260906112314 75 336 0.0 2.0 0.00 0.00 0.00 84 1013.3
20260906111813 75 336 1.0 2.0 0.00 0.00 0.00 84 1013.2
20260906111313 75 307 0.0 2.0 0.00 0.00 0.00 84 1013.1
20260906110811 75 306 0.0 2.0 0.00 0.00 0.00 84 1013.1
20260906110310 75 306 0.0 2.0 0.00 0.00 0.00 84 1013.0
20260906105810 75 306 0.0 2.0 0.00 0.00 0.00 84 1013.0
20260906105310 75 306 1.0 2.0 0.00 0.00 0.00 84 1013.0
20260906104808 75 306 0.0 2.0 0.00 0.00 0.00 84 1013.0
20260906104310 76 306 0.0 1.0 0.00 0.00 0.00 84 1012.9
20260906103811 76 306 0.0 0.0 0.00 0.00 0.00 83 1012.9
20260906103306 76 306 0.0 0.0 0.00 0.00 0.00 83 1012.8
20260906102803 76 306 0.0 0.0 0.00 0.00 0.00 84 1012.7
20260906102306 76 306 0.0 0.0 0.00 0.00 0.00 84 1012.8
20260906102026 75 306 0.0 0.0 0.00 0.00 0.00 85 1012.7
20260906101529 75 306 0.0 0.0 0.00 0.00 0.00 85 1012.6
20260906101028 75 306 0.0 0.0 0.00 0.00 0.00 86 1012.6
20260906100301 75 306 0.0 0.0 0.00 0.00 0.00 87 1012.6
20260906100017 75 306 0.0 0.0 0.00 0.00 0.00 87 1012.5
20260906095305 75 306 0.0 0.0 0.00 0.00 0.00 87 1012.4
20260906094755 75 306 0.0 0.0 0.00 0.00 0.00 87 1012.3
20260906094515 75 306 0.0 0.0 0.00 0.00 0.00 87 1012.3
20260906094022 75 306 0.0 0.0 0.00 0.00 0.00 86 1012.2
20260906093520 75 306 0.0 0.0 0.00 0.00 0.00 87 1012.2
20260906092749 75 306 0.0 1.0 0.00 0.00 0.00 86 1012.2
20260906092247 75 306 0.0 1.0 0.00 0.00 0.00 86 1012.2
20260906091745 75 306 0.0 0.0 0.00 0.00 0.00 85 1012.1
20260906091240 75 306 0.0 0.0 0.00 0.00 0.00 85 1012.1
20260906090741 75 306 0.0 0.0 0.00 0.00 0.00 85 1012.0
20260906090239 75 306 0.0 0.0 0.00 0.00 0.00 84 1011.9
20260906085736 75 306 0.0 0.0 0.00 0.00 0.00 85 1012.0
20260906085500 75 306 0.0 0.0 0.00 0.00 0.00 85 1012.0
20260906084734 75 306 0.0 0.0 0.00 0.00 0.00 85 1012.0
20260906084238 75 306 0.0 0.0 0.00 0.00 0.00 87 1012.0
20260906083743 75 306 0.0 0.0 0.00 0.00 0.00 87 1012.1
20260906083231 75 306 0.0 0.0 0.00 0.00 0.00 88 1012.0
20260906082729 75 306 0.0 0.0 0.00 0.00 0.00 88 1012.1
20260906082458 75 306 0.0 0.0 0.00 0.00 0.00 88 1012.1
20260906081730 75 306 0.0 0.0 0.00 0.00 0.00 88 1012.0
20260906081242 75 306 0.0 0.0 0.00 0.00 0.00 88 1011.9
20260906080726 75 306 0.0 0.0 0.00 0.00 0.00 88 1012.0
20260906080455 75 306 0.0 0.0 0.00 0.00 0.00 87 1012.0
20260906075726 75 306 0.0 0.0 0.00 0.00 0.00 87 1012.0
20260906075451 75 306 0.0 0.0 0.00 0.00 0.00 87 1012.0
20260906074724 75 306 0.0 0.0 0.00 0.00 0.00 87 1011.9
20260906074453 75 306 0.0 0.0 0.00 0.00 0.00 87 1011.8
20260906073717 76 306 0.0 0.0 0.00 0.00 0.00 87 1011.8
20260906073215 76 306 0.0 0.0 0.00 0.00 0.00 87 1011.8
20260906072713 76 306 0.0 0.0 0.00 0.00 0.00 87 1011.7
20260906072214 76 306 0.0 0.0 0.00 0.00 0.00 87 1011.8
20260906071716 76 306 0.0 0.0 0.00 0.00 0.00 86 1011.9
20260906071214 76 306 0.0 0.0 0.00 0.00 0.00 86 1011.9
20260906070713 76 306 0.0 0.0 0.00 0.00 0.00 86 1011.9
20260906070208 76 306 0.0 0.0 0.00 0.00 0.00 85 1012.0
20260906065709 77 306 0.0 0.0 0.00 0.00 0.00 85 1012.0
20260906065209 77 306 0.0 1.0 0.00 0.00 0.00 85 1012.1
20260906064702 77 306 0.0 1.0 0.00 0.00 0.00 85 1012.1
20260906064204 77 306 0.0 1.0 0.00 0.00 0.00 85 1012.2
20260906063932 77 306 0.0 0.0 0.00 0.00 0.00 84 1012.2
20260906063158 77 306 0.0 0.0 0.00 0.00 0.00 85 1012.2
20260906062656 77 306 0.0 0.0 0.00 0.00 0.00 85 1012.2
20260906062158 77 306 0.0 0.0 0.00 0.00 0.00 84 1012.3
20260906061653 77 306 0.0 0.0 0.00 0.00 0.00 84 1012.3
20260906061152 78 306 0.0 0.0 0.00 0.00 0.00 83 1012.4
20260906060651 78 306 0.0 1.0 0.00 0.00 0.00 83 1012.3
20260906060150 78 306 0.0 1.0 0.00 0.00 0.00 83 1012.3
20260906055650 78 306 0.0 0.0 0.00 0.00 0.00 83 1012.2
20260906055409 78 306 0.0 0.0 0.00 0.00 0.00 83 1012.1
20260906054649 78 306 0.0 1.0 0.00 0.00 0.00 82 1012.1
20260906054144 78 306 0.0 1.0 0.00 0.00 0.00 82 1012.1
20260906053643 78 306 0.0 0.0 0.00 0.00 0.00 82 1012.0
20260906053144 79 306 0.0 0.0 0.00 0.00 0.00 82 1012.0
20260906052643 79 306 0.0 0.0 0.00 0.00 0.00 82 1012.0
20260906052142 79 306 0.0 0.0 0.00 0.00 0.00 81 1012.0
20260906051639 79 306 0.0 0.0 0.00 0.00 0.00 81 1011.9
20260906051407 79 306 0.0 0.0 0.00 0.00 0.00 80 1012.0
20260906050636 79 306 0.0 0.0 0.00 0.00 0.00 81 1012.0
20260906050134 79 306 0.0 0.0 0.00 0.00 0.00 81 1012.1
20260906045636 80 306 0.0 1.0 0.00 0.00 0.00 80 1012.1
20260906045133 80 306 0.0 2.0 0.00 0.00 0.00 80 1012.0
20260906044629 79 306 0.0 2.0 0.00 0.00 0.00 80 1012.1
20260906044129 79 306 0.0 2.0 0.00 0.00 0.00 80 1012.0
20260906043856 80 306 0.0 0.0 0.00 0.00 0.00 80 1011.7
20260906043128 80 306 0.0 0.0 0.00 0.00 0.00 80 1011.7
20260906042848 79 306 0.0 0.0 0.00 0.00 0.00 80 1011.7
20260906042122 79 306 0.0 0.0 0.00 0.00 0.00 80 1011.7
20260906041615 79 306 0.0 1.0 0.00 0.00 0.00 80 1011.6
20260906041115 79 306 0.0 1.0 0.00 0.00 0.00 80 1011.6
20260906040632 79 306 0.0 0.0 0.00 0.00 0.00 79 1011.6
20260906040111 80 306 0.0 1.0 0.00 0.00 0.00 79 1011.6
20260906035615 80 306 0.0 1.0 0.00 0.00 0.00 79 1011.5
20260906035114 80 306 0.0 0.0 0.00 0.00 0.00 79 1011.6
20260906034612 80 306 0.0 0.0 0.00 0.00 0.00 78 1011.6
20260906034111 80 306 0.0 0.0 0.00 0.00 0.00 78 1011.5
20260906033614 80 306 0.0 0.0 0.00 0.00 0.00 78 1011.5
20260906033111 80 306 0.0 0.0 0.00 0.00 0.00 78 1011.5
20260906032609 80 306 0.0 0.0 0.00 0.00 0.00 78 1011.5
20260906032104 80 306 0.0 0.0 0.00 0.00 0.00 77 1011.5
20260906031606 80 306 0.0 0.0 0.00 0.00 0.00 77 1011.6
20260906031104 80 306 0.0 0.0 0.00 0.00 0.00 77 1011.6
20260906030601 81 306 0.0 0.0 0.00 0.00 0.00 77 1011.6
20260906030113 81 306 0.0 0.0 0.00 0.00 0.00 77 1011.7
20260906025556 81 306 0.0 0.0 0.00 0.00 0.00 77 1011.8
20260906025321 81 306 0.0 0.0 0.00 0.00 0.00 77 1011.7
20260906024559 81 306 0.0 0.0 0.00 0.00 0.00 76 1011.6
20260906024056 81 306 0.0 0.0 0.00 0.00 0.00 75 1011.6
20260906023553 81 306 0.0 0.0 0.00 0.00 0.00 73 1011.6
20260906023052 82 306 0.0 0.0 0.00 0.00 0.00 72 1011.7
20260906022551 81 306 0.0 0.0 0.00 0.00 0.00 71 1011.6
20260906022049 81 306 0.0 0.0 0.00 0.00 0.00 70 1011.6
20260906021550 82 306 0.0 0.0 0.00 0.00 0.00 70 1011.5
20260906021315 82 305 0.0 2.0 0.00 0.00 0.00 69 1011.4
20260906020550 83 306 0.0 2.0 0.00 0.00 0.00 67 1011.3
20260906015807 83 306 0.0 1.0 0.00 0.00 0.00 67 1011.1
20260906015050 83 306 0.0 1.0 0.00 0.00 0.00 67 1011.0
20260906014813 83 306 0.0 1.0 0.00 0.00 0.00 66 1010.9
20260906014042 83 306 0.0 0.0 0.00 0.00 0.00 67 1010.9
20260906013539 83 306 0.0 0.0 0.00 0.00 0.00 66 1010.9
20260906013033 83 306 0.0 0.0 0.00 0.00 0.00 67 1010.7
20260906012759 83 306 0.0 0.0 0.00 0.00 0.00 67 1010.6
20260906012255 83 305 0.0 0.0 0.00 0.00 0.00 67 1010.6
20260906011536 84 306 0.0 0.0 0.00 0.00 0.00 67 1010.7
20260906011028 84 305 0.0 0.0 0.00 0.00 0.00 67 1010.6
20260906010032 85 306 0.0 0.0 0.00 0.00 0.00 66 1010.4
20260906005525 85 306 0.0 0.0 0.00 0.00 0.00 65 1010.3
20260906005024 85 305 0.0 0.0 0.00 0.00 0.00 64 1010.2
20260906004526 86 306 0.0 0.0 0.00 0.00 0.00 64 1010.3
20260906004026 86 306 0.0 0.0 0.00 0.00 0.00 63 1010.2
20260906003526 86 305 0.0 0.0 0.00 0.00 0.00 65 1010.3
20260906003025 86 305 0.0 0.0 0.00 0.00 0.00 64 1010.3
20260906002525 87 306 0.0 0.0 0.00 0.00 0.00 64 1010.5
20260906002023 87 306 0.0 0.0 0.00 0.00 0.00 63 1010.7
20260906001523 88 306 0.0 0.0 0.00 0.00 0.00 63 1010.8
20260906001018 88 305 0.0 1.0 0.00 0.00 0.00 63 1010.9
20260906000518 89 305 0.0 1.0 0.00 0.00 0.00 63 1010.9
20260906000017 89 305 0.0 0.0 0.00 0.00 0.00 62 1010.8
20260905235516 89 306 0.0 1.0 0.00 0.00 0.00 62 1010.9
20260905235030 90 306 0.0 2.0 0.00 0.00 0.00 61 1011.0
20260905234734 90 305 0.0 2.0 0.00 0.00 0.00 61 1011.0
20260905234015 90 305 0.0 2.0 0.00 0.00 0.00 60 1011.0
20260905233517 90 306 0.0 0.0 0.00 0.00 0.00 59 1011.0
20260905233242 91 306 0.0 0.0 0.00 0.00 0.00 58 1011.0
20260905232011 91 305 0.0 2.0 0.00 0.00 0.00 55 1011.0
20260905231731 92 306 0.0 2.0 0.00 0.00 0.00 54 1011.0
20260905231012 92 333 0.0 0.0 0.00 0.00 0.00 54 1011.0
20260905230511 92 333 0.0 0.0 0.00 0.00 0.00 54 1010.7
20260905230008 92 333 0.0 2.0 0.00 0.00 0.00 53 1010.6
20260905225506 93 333 0.0 4.0 0.00 0.00 0.00 53 1010.5
20260905225008 93 332 0.0 4.0 0.00 0.00 0.00 52 1010.5
20260905224504 93 292 0.0 2.0 0.00 0.00 0.00 52 1010.5
20260905224009 94 292 0.0 2.0 0.00 0.00 0.00 51 1010.4
20260905223500 95 292 1.0 6.0 0.00 0.00 0.00 48 1010.3
20260905222959 96 292 1.0 6.0 0.00 0.00 0.00 47 1010.3
20260905222501 96 339 2.0 7.0 0.00 0.00 0.00 48 1010.4
20260905221959 96 319 2.0 7.0 0.00 0.00 0.00 46 1010.3
20260905221459 96 344 2.0 6.0 0.00 0.00 0.00 47 1010.3
20260905220959 97 27 2.0 4.0 0.00 0.00 0.00 46 1010.2
20260905220500 97 315 2.0 4.0 0.00 0.00 0.00 46 1010.2
20260905215956 97 304 2.0 6.0 0.00 0.00 0.00 45 1010.3
20260905215454 97 208 2.0 6.0 0.00 0.00 0.00 45 1010.5
20260905214956 97 302 2.0 4.0 0.00 0.00 0.00 45 1010.6
20260905214455 98 226 2.0 4.0 0.00 0.00 0.00 45 1010.7
20260905213959 98 315 2.0 7.0 0.00 0.00 0.00 45 1010.6
20260905213713 98 351 2.0 7.0 0.00 0.00 0.00 44 1010.7
20260905212955 97 303 2.0 8.0 0.00 0.00 0.00 45 1010.6
20260905212454 97 318 1.0 8.0 0.00 0.00 0.00 44 1010.6
20260905211954 96 348 1.0 4.0 0.00 0.00 0.00 48 1010.6
20260905211711 97 296 1.0 4.0 0.00 0.00 0.00 47 1010.6
20260905210950 98 295 1.0 6.0 0.00 0.00 0.00 45 1010.6
20260905210451 98 342 2.0 6.0 0.00 0.00 0.00 43 1010.7
20260905205951 98 352 2.0 6.0 0.00 0.00 0.00 43 1010.7
20260905205452 98 355 1.0 6.0 0.00 0.00 0.00 45 1010.8
20260905204944 97 337 1.0 3.0 0.00 0.00 0.00 45 1010.9
20260905204442 96 83 1.0 2.0 0.00 0.00 0.00 48 1011.0
20260905203945 96 238 1.0 2.0 0.00 0.00 0.00 48 1011.1
20260905203436 96 82 1.0 6.0 0.00 0.00 0.00 46 1011.1